Temp
-4 -4 -4 -4 -4 -4 -4 -5 -6 -6 -6 -7 -7 -7 -7 -7 -7 -7 -6 -6 -6 -5 -5 -5 -5 -5 -5 -5 -5 -5 -5 -5 -5 -5 -5 -5 -6 -5 -5 -4 -4 -5 -5 -4 -5 -5 -5
-4 -4 -4 -4 -4 -4 -5 -5 -6 -7 -7 -7 -7 -7 -7 -7 -7 -7 -7 -7 -6 -6 -6 -5 -5 -5 -5 -5 -5 -6 -5 -5 -5 -5 -5 -5 -6 -5 -5 -5 -5 -5 -5 -5 -4 -5 -5
-4 -4 -4 -4 -4 -4 -5 -5 -6 -7 -7 -7 -7 -7 -7 -7 -7 -7 -7 -7 -7 -7 -6 -6 -5 -5 -5 -5 -6 -6 -5 -5 -5 -5 -6 -6 -6 -5 -5 -5 -5 -5 -6 -5 -4 -4 -5
-4 -4 -4 -4 -4 -5 -5 -6 -6 -7 -8 -8 -8 -8 -8 -8 -8 -7 -7 -7 -7 -7 -7 -6 -6 -5 -6 -5 -6 -6 -6 -6 -6 -5 -5 -6 -6 -5 -5 -5 -6 -6 -5 -5 -5 -4 -5
-4 -5 -5 -5 -5 -5 -6 -6 -7 -8 -8 -8 -8 -8 -8 -8 -8 -8 -8 -8 -7 -8 -8 -7 -6 -6 -6 -6 -6 -6 -6 -6 -6 -6 -6 -6 -5 -5 -6 -5 -5 -5 -6 -5 -4 -4 -5
-5 -5 -5 -5 -6 -6 -6 -7 -7 -8 -9 -9 -9 -9 -9 -9 -9 -9 -8 -8 -8 -8 -8 -8 -7 -7 -7 -6 -6 -7 -7 -7 -7 -6 -6 -6 -6 -5 -5 -5 -5 -5 -6 -6 -6 -4 -4
-5 -6 -6 -6 -6 -6 -7 -7 -7 -8 -9 -9 -9 -9 -9 -10 -10 -9 -9 -9 -9 -8 -8 -8 -8 -8 -7 -7 -6 -7 -7 -7 -7 -6 -6 -6 -6 -6 -6 -6 -6 -6 -7 -7 -6 -5 -4
-5 -6 -6 -6 -6 -6 -7 -8 -8 -9 -9 -10 -10 -10 -10 -11 -10 -10 -10 -10 -10 -9 -9 -9 -9 -8 -7 -8 -8 -7 -7 -7 -7 -7 -7 -6 -5 -7 -7 -7 -7 -6 -7 -7 -7 -5 -6
-6 -6 -5 -6 -6 -6 -7 -8 -9 -9 -10 -10 -10 -11 -11 -11 -11 -11 -10 -10 -10 -10 -9 -10 -9 -9 -9 -8 -8 -8 -8 -8 -8 -8 -7 -7 -7 -7 -7 -7 -7 -7 -7 -7 -7 -7 -7
-5 -5 -6 -6 -6 -6 -7 -8 -9 -10 -10 -10 -11 -12 -12 -12 -12 -11 -11 -11 -11 -10 -10 -10 -10 -10 -9 -9 -9 -9 -8 -8 -8 -8 -8 -7 -8 -7 -7 -7 -8 -7 -6 -8 -6 -7 -7
-6 -5 -6 -6 -6 -7 -7 -9 -10 -10 -11 -11 -11 -12 -12 -12 -12 -12 -12 -12 -12 -12 -12 -13 -10 -9 -10 -10 -11 -10 -10 -9 -8 -9 -8 -7 -8 -8 -7 -8 -7 -7 -8 -9 -8 -7 -7
-5 -5 -6 -6 -7 -7 -8 -10 -11 -11 -12 -12 -12 -12 -12 -12 -13 -13 -13 -14 -14 -14 -14 -14 -14 -13 -12 -11 -12 -11 -11 -10 -10 -10 -9 -9 -8 -8 -7 -8 -8 -8 -8 -8 -8 -7 -8
-6 -6 -6 -7 -7 -8 -9 -10 -11 -11 -12 -12 -13 -13 -13 -13 -13 -14 -14 -14 -14 -14 -15 -15 -16 -15 -15 -14 -13 -13 -11 -11 -10 -9 -9 -9 -8 -8 -9 -8 -8 -8 -9 -8 -8 -7 -7
-6 -6 -6 -7 -8 -9 -10 -11 -12 -12 -12 -13 -13 -13 -13 -14 -14 -14 -15 -15 -15 -15 -16 -15 -16 -15 -15 -15 -14 -14 -14 -11 -12 -11 -11 -10 -9 -9 -9 -8 -8 -8 -8 -8 -8 -8 -8
-6 -6 -7 -8 -9 -10 -11 -12 -12 -13 -13 -13 -13 -14 -14 -14 -14 -15 -15 -15 -16 -15 -15 -15 -15 -15 -16 -16 -16 -15 -15 -14 -13 -12 -12 -12 -10 -10 -10 -11 -9 -8 -8 -8 -9 -9 -9
-6 -7 -8 -9 -9 -10 -11 -12 -12 -13 -13 -13 -13 -14 -14 -15 -15 -14 -15 -15 -16 -16 -16 -15 -15 -16 -16 -16 -15 -15 -15 -14 -14 -14 -13 -13 -11 -10 -10 -12 -10 -9 -9 -9 -9 -8 -9
-6 -8 -9 -9 -10 -11 -11 -12 -13 -14 -13 -14 -14 -14 -15 -14 -13 -15 -15 -16 -16 -15 -14 -16 -15 -16 -15 -15 -15 -15 -14 -14 -14 -14 -13 -13 -12 -11 -12 -12 -10 -9 -9 -9 -9 -8 -9
-8 -9 -10 -10 -11 -12 -12 -13 -13 -14 -14 -14 -14 -14 -15 -16 -16 -16 -16 -16 -15 -15 -16 -16 -15 -16 -15 -15 -15 -14 -15 -14 -14 -14 -14 -13 -12 -12 -12 -11 -12 -10 -9 -9 -9 -8 -10
-9 -10 -10 -11 -11 -12 -13 -13 -14 -14 -14 -14 -14 -15 -16 -16 -16 -16 -16 -16 -15 -16 -16 -16 -16 -16 -16 -15 -15 -15 -15 -14 -14 -14 -13 -13 -12 -11 -11 -11 -11 -11 -11 -10 -9 -9 -9
-10 -10 -11 -11 -12 -12 -13 -13 -15 -14 -14 -14 -14 -15 -16 -17 -17 -16 -16 -16 -16 -17 -16 -17 -16 -16 -16 -16 -15 -16 -15 -15 -15 -14 -13 -13 -12 -12 -12 -11 -11 -12 -11 -10 -9 -9 -10
-10 -11 -11 -11 -12 -13 -13 -14 -15 -15 -14 -14 -14 -15 -16 -16 -17 -17 -17 -17 -17 -16 -16 -16 -16 -16 -16 -16 -16 -15 -15 -15 -15 -15 -13 -14 -12 -12 -12 -12 -12 -11 -12 -11 -10 -10 -11
-11 -11 -11 -11 -12 -13 -13 -13 -14 -15 -14 -14 -14 -14 -15 -16 -17 -17 -16 -16 -16 -16 -16 -15 -16 -16 -16 -16 -15 -15 -14 -15 -15 -15 -14 -13 -13 -13 -11 -12 -12 -11 -10 -11 -12 -11 -11
-11 -11 -11 -12 -12 -13 -13 -14 -14 -14 -15 -14 -14 -15 -15 -15 -15 -16 -16 -16 -16 -16 -15 -16 -15 -16 -16 -16 -16 -16 -15 -15 -15 -14 -14 -13 -13 -13 -13 -13 -13 -12 -13 -13 -13 -12 -11
-11 -11 -11 -12 -12 -13 -13 -15 -15 -14 -15 -15 -15 -15 -15 -15 -15 -16 -16 -16 -16 -16 -16 -16 -15 -15 -16 -16 -16 -16 -16 -15 -15 -15 -14 -13 -14 -14 -13 -13 -13 -13 -12 -13 -13 -13 -11
-11 -11 -12 -12 -13 -13 -13 -15 -15 -15 -15 -15 -15 -15 -15 -15 -15 -15 -16 -16 -16 -16 -16 -15 -15 -15 -15 -16 -16 -16 -16 -16 -15 -16 -15 -15 -16 -14 -14 -14 -13 -14 -13 -13 -14 -13 -12
-12 -11 -12 -13 -13 -13 -13 -15 -15 -15 -15 -15 -15 -15 -15 -15 -15 -15 -15 -15 -15 -15 -16 -16 -16 -15 -16 -15 -15 -15 -16 -16 -15 -16 -16 -16 -15 -16 -15 -15 -14 -14 -13 -14 -15 -13 -12
-11 -11 -12 -13 -13 -13 -13 -15 -15 -15 -15 -15 -15 -15 -15 -15 -15 -15 -15 -15 -16 -16 -16 -16 -16 -16 -16 -16 -16 -15 -15 -16 -15 -15 -15 -15 -15 -15 -16 -16 -15 -14 -13 -14 -15 -14 -13
-12 -12 -13 -13 -13 -13 -14 -15 -15 -15 -15 -15 -15 -15 -15 -15 -15 -15 -15 -15 -16 -16 -16 -16 -16 -16 -16 -16 -16 -16 -16 -17 -16 -16 -16 -16 -15 -16 -16 -16 -16 -13 -14 -14 -15 -15 -13
-12 -13 -13 -13 -14 -14 -15 -15 -15 -15 -15 -15 -15 -15 -15 -15 -15 -15 -15 -15 -16 -16 -16 -16 -16 -16 -16 -16 -16 -16 -16 -16 -17 -16 -16 -16 -16 -16 -16 -15 -14 -15 -15 -15 -15 -16 -16
Height
5877 5873 5869 5864 5858 5853 5847 5842 5838 5834 5832 5829 5828 5827 5827 5826 5826 5826 5827 5829 5831 5834 5836 5838 5841 5843 5846 5851 5856 5857 5861 5865 5869 5873 5877 5882 5884 5886 5886 5889 5892 5895 5897 5900 5901 5903 5902
5876 5871 5866 5861 5856 5850 5844 5839 5834 5830 5828 5825 5823 5821 5820 5820 5820 5821 5822 5822 5824 5826 5829 5832 5835 5838 5841 5845 5852 5853 5856 5860 5864 5868 5873 5879 5881 5882 5883 5886 5892 5894 5897 5898 5901 5903 5901
5874 5870 5865 5860 5854 5848 5842 5836 5831 5826 5823 5820 5818 5817 5814 5813 5813 5813 5814 5816 5816 5819 5822 5825 5828 5832 5836 5838 5846 5848 5851 5855 5859 5863 5868 5874 5875 5879 5880 5884 5889 5891 5894 5897 5901 5901 5902
5873 5867 5862 5857 5851 5845 5838 5832 5826 5822 5819 5816 5814 5812 5810 5808 5807 5806 5807 5808 5809 5811 5814 5817 5821 5825 5829 5834 5840 5842 5846 5851 5855 5859 5863 5867 5870 5874 5880 5880 5884 5889 5892 5896 5899 5900 5901
5870 5866 5860 5854 5847 5840 5834 5828 5823 5818 5815 5812 5809 5806 5805 5803 5802 5800 5800 5800 5802 5804 5806 5809 5814 5818 5821 5828 5833 5835 5841 5845 5849 5854 5858 5862 5866 5872 5875 5880 5884 5885 5892 5895 5898 5898 5902
5868 5863 5856 5850 5842 5836 5830 5824 5818 5815 5811 5808 5804 5803 5802 5799 5796 5795 5794 5794 5794 5796 5799 5802 5806 5811 5815 5819 5824 5829 5835 5840 5844 5848 5853 5857 5862 5867 5871 5875 5882 5887 5891 5892 5893 5896 5901
5865 5859 5852 5845 5837 5831 5825 5819 5813 5809 5806 5802 5798 5795 5794 5794 5794 5790 5788 5788 5789 5791 5791 5794 5799 5801 5806 5812 5817 5823 5827 5833 5838 5842 5848 5853 5857 5863 5869 5875 5880 5886 5888 5892 5891 5894 5892
5862 5855 5848 5840 5833 5826 5820 5814 5810 5805 5801 5798 5795 5794 5792 5789 5787 5786 5783 5782 5781 5783 5785 5786 5790 5794 5799 5803 5810 5815 5821 5826 5831 5837 5843 5847 5852 5861 5865 5871 5875 5879 5881 5884 5882 5883 5892
5857 5850 5843 5836 5828 5820 5813 5806 5801 5799 5796 5792 5789 5786 5784 5783 5782 5781 5780 5778 5776 5776 5778 5780 5782 5786 5790 5796 5801 5807 5814 5819 5826 5832 5837 5843 5855 5855 5861 5864 5870 5873 5875 5881 5884 5890 5889
5853 5845 5838 5830 5822 5814 5807 5801 5796 5791 5789 5786 5784 5782 5780 5778 5777 5774 5773 5772 5772 5770 5772 5774 5776 5779 5782 5786 5794 5799 5805 5812 5818 5825 5831 5836 5846 5849 5854 5862 5865 5869 5875 5878 5875 5883 5885
5848 5840 5832 5824 5816 5808 5800 5794 5788 5785 5782 5781 5779 5777 5775 5771 5769 5769 5767 5766 5765 5765 5767 5769 5766 5770 5775 5780 5786 5792 5799 5804 5809 5817 5823 5832 5837 5842 5846 5855 5860 5869 5870 5876 5877 5880 5881
5842 5834 5826 5817 5809 5800 5793 5788 5783 5779 5776 5773 5773 5771 5770 5765 5761 5760 5759 5759 5759 5761 5762 5764 5763 5765 5769 5773 5777 5782 5791 5796 5804 5810 5814 5825 5831 5836 5843 5848 5856 5868 5867 5868 5872 5874 5871
5836 5827 5819 5810 5801 5793 5787 5782 5778 5775 5771 5768 5767 5766 5762 5759 5756 5754 5754 5754 5755 5754 5757 5758 5760 5762 5764 5765 5771 5775 5781 5788 5794 5801 5809 5817 5822 5827 5834 5840 5849 5858 5862 5863 5867 5868 5874
5828 5820 5810 5802 5793 5786 5779 5775 5771 5769 5766 5765 5762 5760 5756 5754 5750 5749 5749 5749 5749 5751 5753 5755 5757 5759 5760 5763 5765 5770 5774 5783 5790 5796 5804 5811 5816 5823 5827 5833 5844 5850 5856 5857 5862 5867 5875
5821 5812 5802 5794 5786 5779 5774 5770 5767 5763 5761 5760 5759 5756 5752 5749 5746 5746 5747 5746 5746 5747 5751 5752 5752 5755 5757 5761 5764 5768 5772 5777 5785 5791 5798 5803 5811 5819 5823 5827 5835 5845 5848 5859 5863 5866 5873
5814 5804 5796 5788 5781 5774 5769 5766 5763 5760 5758 5757 5756 5753 5749 5748 5745 5742 5743 5743 5745 5747 5747 5748 5749 5748 5750 5753 5754 5757 5765 5775 5780 5786 5791 5796 5798 5809 5819 5823 5828 5838 5847 5854 5855 5861 5867
5806 5797 5789 5782 5775 5769 5765 5761 5760 5756 5756 5754 5753 5751 5749 5744 5737 5741 5743 5742 5742 5744 5743 5743 5743 5742 5745 5748 5751 5750 5755 5761 5768 5779 5785 5788 5793 5806 5812 5817 5827 5834 5836 5846 5851 5858 5860
5799 5791 5784 5777 5771 5766 5760 5758 5757 5757 5756 5754 5751 5748 5746 5743 5743 5740 5744 5745 5741 5738 5741 5741 5739 5739 5739 5746 5748 5751 5755 5759 5764 5769 5774 5781 5790 5797 5804 5812 5820 5826 5832 5840 5844 5852 5857
5792 5785 5779 5773 5767 5762 5758 5755 5754 5754 5753 5752 5749 5746 5745 5744 5743 5742 5741 5740 5737 5737 5737 5735 5736 5735 5738 5741 5744 5751 5754 5759 5763 5764 5771 5783 5789 5794 5799 5805 5810 5815 5823 5834 5843 5846 5846
5788 5782 5776 5770 5764 5758 5754 5754 5750 5752 5752 5752 5749 5746 5745 5744 5741 5741 5740 5739 5737 5739 5738 5735 5735 5736 5738 5742 5745 5750 5755 5756 5756 5765 5770 5777 5776 5780 5792 5802 5806 5811 5818 5826 5836 5840 5839
5785 5778 5771 5766 5761 5756 5752 5750 5749 5750 5751 5751 5749 5747 5744 5744 5742 5740 5739 5739 5740 5738 5738 5737 5737 5737 5738 5742 5744 5750 5752 5754 5758 5762 5762 5765 5773 5777 5785 5793 5798 5804 5812 5824 5829 5829 5831
5781 5774 5768 5763 5758 5756 5751 5748 5749 5748 5750 5750 5750 5748 5744 5743 5741 5739 5738 5739 5739 5738 5738 5737 5736 5735 5736 5742 5743 5745 5748 5754 5755 5757 5757 5767 5773 5776 5785 5789 5796 5802 5809 5819 5823 5819 5819
5777 5770 5764 5759 5755 5750 5748 5744 5747 5747 5749 5750 5750 5749 5747 5745 5740 5739 5738 5738 5738 5738 5738 5736 5735 5734 5736 5741 5742 5746 5749 5749 5754 5756 5759 5766 5771 5769 5771 5783 5792 5800 5805 5810 5807 5808 5814
5771 5765 5759 5755 5751 5748 5744 5742 5744 5746 5748 5748 5749 5749 5748 5746 5742 5741 5739 5738 5737 5737 5737 5736 5735 5736 5737 5738 5739 5742 5745 5748 5751 5754 5759 5761 5763 5767 5771 5778 5782 5786 5794 5800 5802 5797 5808
5766 5760 5754 5749 5747 5745 5741 5738 5743 5744 5747 5747 5748 5748 5748 5747 5745 5743 5741 5739 5738 5737 5737 5736 5735 5736 5736 5736 5738 5739 5743 5746 5750 5752 5756 5757 5759 5765 5770 5773 5775 5777 5784 5791 5790 5791 5805
5762 5756 5749 5747 5745 5743 5739 5738 5742 5743 5745 5746 5747 5747 5747 5747 5747 5744 5742 5741 5739 5738 5738 5737 5736 5735 5735 5736 5737 5739 5740 5742 5745 5748 5751 5753 5754 5761 5767 5770 5771 5776 5783 5786 5783 5795 5796
5758 5753 5749 5744 5744 5742 5738 5739 5740 5742 5744 5745 5745 5745 5746 5746 5745 5744 5743 5742 5740 5739 5738 5738 5737 5737 5736 5736 5736 5737 5739 5741 5742 5744 5748 5749 5752 5754 5759 5761 5766 5773 5777 5780 5784 5786 5788
5754 5750 5747 5743 5739 5740 5738 5739 5740 5741 5743 5744 5744 5744 5745 5745 5744 5744 5743 5741 5740 5739 5738 5738 5738 5737 5738 5738 5738 5738 5738 5738 5740 5742 5742 5744 5747 5748 5750 5753 5758 5764 5773 5776 5778 5778 5782
5752 5748 5745 5741 5737 5738 5737 5738 5739 5740 5742 5744 5744 5744 5744 5744 5744 5743 5742 5740 5739 5738 5737 5736 5737 5736 5735 5736 5737 5737 5738 5738 5738 5738 5740 5740 5743 5745 5747 5748 5751 5756 5764 5769 5770 5771 5774
Wind_Speed
26 27 29 30 32 32 29 27 25 22 20 20 20 20 19 20 21 22 24 26 27 28 28 28 27 27 27 27 26 27 27 28 31 27 24 21 18 20 19 19 15 5 10 4 2 5 4
28 30 32 34 35 34 31 28 27 23 20 21 21 19 18 18 21 22 24 25 27 28 29 29 29 29 28 28 24 28 28 29 30 32 29 26 23 25 23 19 17 12 11 12 9 6 1
31 33 35 36 34 33 32 30 27 23 20 19 18 19 17 15 18 22 24 26 26 27 29 30 30 30 29 31 24 30 29 30 31 31 32 28 30 28 26 25 20 15 11 13 10 8 8
34 36 37 38 36 36 35 31 27 23 19 18 17 17 19 17 18 18 21 26 28 27 28 30 31 31 31 30 26 30 31 30 31 33 32 33 34 31 26 26 23 18 15 16 13 13 8
34 37 38 39 38 38 37 34 29 23 19 17 18 18 18 17 18 19 20 22 25 27 28 30 32 31 33 31 30 34 31 33 33 33 35 34 33 32 32 26 24 25 21 17 18 14 9
36 39 39 44 42 40 38 34 29 24 21 20 19 19 19 17 16 17 20 22 24 24 26 28 31 32 34 34 34 35 33 32 35 35 34 37 33 30 29 30 26 20 14 14 16 18 12
39 43 47 49 47 44 40 36 30 25 21 20 19 17 17 17 18 17 18 20 22 24 26 26 27 33 33 33 34 36 37 35 35 37 36 35 35 32 26 22 22 22 9 13 22 23 10
41 46 50 52 50 45 42 38 33 27 23 23 21 19 17 16 16 18 16 18 20 22 24 27 26 31 33 33 33 35 38 39 38 37 36 38 36 32 30 26 23 28 23 23 29 19 26
43 50 53 52 52 48 41 36 32 29 25 23 21 17 15 17 18 16 15 16 17 19 21 25 28 30 32 34 33 36 38 37 37 36 36 36 29 33 34 33 30 31 36 25 26 30 35
46 52 53 55 55 47 41 38 33 28 25 22 20 17 15 17 20 17 15 19 17 19 20 25 27 27 32 34 33 34 37 38 39 38 37 37 34 37 35 35 34 33 32 14 25 18 23
48 53 56 56 55 45 40 35 30 27 25 22 19 18 18 18 20 18 17 18 14 16 13 17 29 31 28 31 30 34 33 40 41 40 41 38 39 40 40 35 38 32 32 14 24 24 21
52 54 57 57 51 43 38 34 28 25 24 19 16 16 20 22 20 19 16 9 8 11 16 14 18 19 21 26 28 31 34 37 39 42 45 38 38 42 43 37 39 37 27 25 27 27 16
53 55 59 55 47 41 39 32 26 24 22 15 13 17 21 21 20 16 10 9 10 18 19 16 12 9 13 19 21 28 36 37 43 46 45 43 43 45 40 42 39 45 40 33 27 24 19
56 57 58 51 42 40 35 29 21 21 18 13 13 18 20 20 17 12 7 6 6 9 14 22 17 16 11 15 19 24 27 35 39 42 43 42 44 45 45 44 41 47 45 35 20 16 18
56 58 54 43 41 37 32 26 18 17 12 11 16 16 17 19 12 7 7 7 6 8 2 12 20 15 15 9 13 23 24 26 30 38 41 36 42 42 43 38 44 46 54 41 17 18 17
59 55 45 40 40 36 29 24 16 13 10 13 14 12 12 11 12 3 3 9 8 4 9 13 16 22 23 29 31 32 26 25 16 28 38 29 39 44 39 33 40 43 46 41 32 28 18
57 49 40 40 39 34 28 20 16 7 10 13 11 13 8 12 12 9 6 5 1 2 9 7 18 24 23 33 35 37 39 39 31 34 39 34 41 36 30 32 26 40 48 48 39 34 31
50 40 39 40 37 32 23 19 12 4 11 10 10 13 8 9 15 19 12 5 5 6 6 13 15 20 17 27 36 39 32 33 36 42 47 44 38 42 40 36 32 41 46 51 47 38 28
43 38 38 39 36 29 21 18 6 6 8 6 11 11 9 12 10 8 7 6 10 10 14 12 13 20 21 25 22 27 35 34 36 47 45 44 28 43 41 40 45 49 48 41 51 41 39
40 39 41 38 34 27 19 18 8 4 3 4 9 7 2 6 13 7 6 4 7 7 7 5 2 18 15 26 21 9 30 24 18 45 45 42 44 44 42 38 40 48 46 49 45 49 42
40 41 37 35 32 23 18 19 7 3 4 4 8 6 1 6 12 10 8 6 8 4 3 2 3 13 19 17 16 15 14 36 34 33 34 43 31 43 47 45 43 39 44 42 43 48 42
42 39 34 33 29 22 19 14 10 4 7 5 7 7 5 2 2 3 3 4 2 1 3 7 3 1 28 26 20 23 13 21 18 26 47 35 29 38 42 35 38 34 38 44 46 46 46
40 37 32 31 27 22 17 7 10 6 9 3 5 8 8 7 10 9 5 3 2 1 0 1 6 9 7 18 12 12 19 15 14 20 37 37 33 24 39 30 28 25 22 37 35 42 54
36 34 31 30 25 21 18 5 12 8 11 6 2 3 7 9 12 12 11 7 3 1 1 2 3 3 3 8 20 25 17 19 18 26 31 44 45 24 23 37 32 41 34 44 34 37 57
37 35 31 27 21 18 14 7 12 8 11 10 7 2 4 5 8 8 11 13 10 3 1 2 1 5 8 7 7 14 18 13 18 20 34 41 41 43 27 29 33 31 35 40 37 30 47
35 33 29 22 18 18 12 19 11 8 9 10 10 7 5 4 5 6 8 9 10 12 6 1 4 4 3 6 8 11 15 14 15 16 24 45 45 42 30 32 37 34 37 36 25 34 39
33 32 22 17 17 16 3 18 11 8 6 7 7 5 5 4 4 6 5 6 8 9 9 9 4 3 4 3 4 8 7 10 7 10 16 21 42 55 43 34 38 38 43 37 30 32 37
27 23 18 18 14 13 9 17 12 9 6 3 3 1 2 2 3 5 6 8 8 7 7 6 6 5 3 2 6 5 7 8 11 14 14 13 16 20 29 54 51 59 48 33 31 37 47
22 20 19 18 14 13 11 20 14 11 6 1 1 2 4 4 4 4 7 8 7 7 7 7 8 9 10 7 5 4 5 10 16 18 17 20 17 18 22 24 30 41 50 52 31 38 41
Wind_Direction
13 9 5 1 355 348 344 336 331 324 311 302 299 297 291 282 272 264 256 255 252 248 246 244 237 230 226 220 203 206 208 208 210 211 206 203 202 206 198 194 193 204 170 160 151 116 103
11 7 4 1 353 349 343 337 332 326 318 310 305 298 294 285 276 269 264 256 251 247 245 241 240 234 228 225 208 214 205 205 205 211 211 204 205 212 204 199 192 208 199 203 177 167 209
11 8 3 359 353 349 343 335 332 326 318 310 302 299 295 291 278 266 262 260 253 247 244 241 236 236 230 228 209 216 210 205 205 205 209 204 208 212 210 204 190 196 187 211 213 190 210
5 2 359 354 351 346 341 335 331 327 321 314 308 297 295 287 281 274 266 259 254 250 244 241 236 232 230 228 214 222 213 208 207 205 206 207 209 212 214 203 191 192 181 216 206 200 223
1 360 357 354 349 342 341 337 330 324 319 312 306 298 293 289 283 274 267 263 256 253 245 238 238 232 230 229 218 220 214 211 208 208 207 207 215 210 216 216 210 203 204 230 210 215 237
2 359 358 356 346 343 340 338 330 322 315 310 305 302 298 294 286 274 263 257 257 253 247 240 235 233 228 224 220 216 218 214 212 208 209 211 209 208 212 215 214 211 203 218 238 251 221
356 358 356 356 350 343 340 335 331 320 314 307 299 291 290 295 296 286 272 260 258 255 249 239 234 233 227 225 223 218 215 213 214 212 209 212 212 205 211 210 213 202 171 227 235 231 230
349 352 351 352 349 343 337 334 331 321 312 307 301 293 293 297 299 295 278 269 258 253 254 247 237 235 230 221 219 217 217 216 214 213 211 212 210 207 203 201 205 204 185 210 238 188 235
346 347 346 347 347 342 333 329 326 319 312 306 298 285 287 295 301 298 280 267 262 256 249 250 242 233 232 225 219 216 215 217 216 215 213 214 212 210 207 195 200 206 198 215 232 239 249
343 343 343 342 342 337 330 326 323 318 312 309 299 288 291 297 304 302 292 282 273 259 251 243 238 235 237 231 223 218 217 214 214 214 211 212 208 214 204 206 198 206 199 211 239 250 262
339 340 340 339 339 332 323 320 320 316 314 311 300 294 298 305 307 298 291 284 266 254 245 253 245 230 225 233 226 220 215 216 213 211 212 207 208 212 209 199 201 201 190 211 262 262 219
337 338 339 337 336 326 318 320 319 314 313 308 299 299 305 307 306 306 306 284 224 224 215 211 255 265 247 235 233 223 214 213 214 212 209 206 209 212 216 199 203 187 188 220 224 245 226
333 334 335 335 332 322 322 322 317 315 312 306 301 304 307 305 308 308 294 242 230 210 195 171 198 194 271 261 228 224 221 210 212 211 214 204 206 211 213 208 197 191 190 214 208 219 214
333 332 332 333 327 323 324 320 316 317 309 303 306 312 309 307 307 305 277 272 270 231 236 213 203 219 197 276 240 210 220 211 211 215 212 214 208 212 209 213 199 197 194 208 202 216 234
332 332 333 330 325 328 327 321 315 311 298 300 317 321 313 318 307 298 292 336 234 249 127 203 207 214 198 228 186 202 207 233 215 215 213 209 214 215 216 211 201 198 199 199 196 213 254
330 334 335 329 329 331 330 323 311 307 297 310 324 329 328 301 266 270 293 282 292 208 261 219 201 220 207 193 188 185 185 228 243 209 207 189 211 209 214 217 216 200 199 193 197 207 204
333 336 333 330 333 335 331 318 311 295 298 318 329 333 329 311 319 332 309 116 65 224 242 249 217 224 224 214 205 202 192 198 197 197 199 196 211 195 194 219 217 205 200 197 199 203 199
337 334 331 336 339 337 325 316 311 278 308 325 340 346 344 346 311 325 319 356 7 35 325 264 241 247 258 219 218 205 203 194 196 188 197 199 205 191 195 205 186 210 210 201 200 194 203
335 332 334 340 341 335 325 321 291 255 309 329 341 345 24 326 314 329 346 324 3 358 316 315 247 228 236 218 201 204 213 207 210 204 192 196 207 203 196 199 191 209 213 208 206 200 200
334 332 337 342 339 334 328 326 256 209 279 353 347 343 80 323 307 327 28 32 9 292 324 296 241 223 237 221 242 233 217 235 235 196 200 199 203 196 203 210 202 211 213 207 206 210 210
335 337 342 341 337 333 329 329 171 236 173 20 9 347 351 264 307 320 306 313 235 281 284 218 305 212 211 231 249 208 237 219 225 217 200 214 198 199 197 206 217 218 210 214 207 211 220
335 338 339 339 335 329 325 341 176 195 171 65 28 13 42 251 350 336 299 265 256 321 255 270 137 131 212 213 237 221 192 209 225 193 213 200 199 193 195 197 206 214 223 209 217 220 223
335 335 335 335 330 321 319 317 178 190 176 125 45 42 36 44 36 19 333 305 250 176 17 298 234 246 225 189 200 219 230 257 223 220 226 201 197 162 169 183 195 188 195 191 218 227 225
335 336 333 331 325 319 313 255 181 191 187 181 141 50 24 24 51 32 26 5 18 290 23 2 274 90 263 228 223 227 239 236 222 217 220 228 215 202 161 165 167 184 189 195 217 221 222
331 333 335 329 326 321 302 233 176 187 198 204 210 241 326 9 37 34 28 26 21 24 186 173 243 184 214 225 212 225 229 228 223 229 219 223 223 226 205 185 186 172 189 197 208 215 228
333 335 334 331 329 319 308 164 174 172 200 214 223 237 281 312 342 5 18 16 23 37 44 190 182 185 216 201 209 197 209 202 213 210 210 221 227 225 208 214 209 199 199 203 222 222 226
338 336 335 335 332 330 249 167 168 165 183 202 219 232 270 296 312 317 328 332 348 359 11 23 30 207 221 257 241 214 224 204 241 233 224 217 224 229 225 222 222 222 220 219 214 225 232
337 337 333 331 327 324 196 182 172 166 160 172 187 203 322 338 350 343 346 333 321 314 313 324 332 348 351 256 244 249 236 266 226 244 249 238 239 225 227 227 227 233 226 218 217 228 237
332 334 332 335 324 311 220 194 187 176 163 159 256 276 292 287 297 318 332 333 312 312 301 300 301 293 281 286 274 262 245 237 247 257 257 255 246 243 236 240 232 231 232 231 225 213 230